Year,Month,Day,Hour,Minute,Value (Times are PST for temperature in C)
2018,08,08,00,00,17.70
2018,08,08,00,01,17.70
2018,08,08,00,02,17.60
2018,08,08,00,03,17.60
2018,08,08,00,04,17.60
2018,08,08,00,05,17.50
2018,08,08,00,06,17.60
2018,08,08,00,07,17.50
2018,08,08,00,08,17.50
2018,08,08,00,09,17.40
2018,08,08,00,10,17.40
2018,08,08,00,11,17.40
2018,08,08,00,12,17.40
2018,08,08,00,13,17.30
2018,08,08,00,14,17.30
2018,08,08,00,15,17.30
2018,08,08,00,16,17.30
2018,08,08,00,17,17.30
2018,08,08,00,18,17.20
2018,08,08,00,19,17.20
2018,08,08,00,20,17.20
2018,08,08,00,21,17.20
2018,08,08,00,22,17.10
2018,08,08,00,23,17.10
2018,08,08,00,24,17.10
2018,08,08,00,25,17.10
2018,08,08,00,26,17.00
2018,08,08,00,27,17.00
2018,08,08,00,28,17.00
2018,08,08,00,29,17.00
2018,08,08,00,30,16.90
2018,08,08,00,31,16.90
2018,08,08,00,32,16.90
2018,08,08,00,33,16.90
2018,08,08,00,34,16.80
2018,08,08,00,35,16.80
2018,08,08,00,36,16.80
2018,08,08,00,37,16.80
2018,08,08,00,38,16.80
2018,08,08,00,39,16.70
2018,08,08,00,40,16.70
2018,08,08,00,41,16.70
2018,08,08,00,42,16.70
2018,08,08,00,43,16.70
2018,08,08,00,44,16.70
2018,08,08,00,45,16.60
2018,08,08,00,46,16.60
2018,08,08,00,47,16.60
2018,08,08,00,48,16.50
2018,08,08,00,49,16.60
2018,08,08,00,50,16.50
2018,08,08,00,51,16.50
2018,08,08,00,52,16.50
2018,08,08,00,53,16.50
2018,08,08,00,54,16.50
2018,08,08,00,55,16.40
2018,08,08,00,56,16.40
2018,08,08,00,57,16.40
2018,08,08,00,58,16.40
2018,08,08,00,59,16.40
2018,08,08,01,00,16.40
2018,08,08,01,01,16.40
2018,08,08,01,02,16.40
2018,08,08,01,03,16.40
2018,08,08,01,04,16.40
2018,08,08,01,05,16.40
2018,08,08,01,06,16.40
2018,08,08,01,07,16.40
2018,08,08,01,08,16.40
2018,08,08,01,09,16.40
2018,08,08,01,10,16.40
2018,08,08,01,11,16.40
2018,08,08,01,12,16.40
2018,08,08,01,13,16.30
2018,08,08,01,14,16.30
2018,08,08,01,15,16.30
2018,08,08,01,16,16.30
2018,08,08,01,17,16.30
2018,08,08,01,18,16.30
2018,08,08,01,19,16.30
2018,08,08,01,20,16.30
2018,08,08,01,21,16.30
2018,08,08,01,22,16.30
2018,08,08,01,23,16.30
2018,08,08,01,24,16.30
2018,08,08,01,25,16.30
2018,08,08,01,26,16.30
2018,08,08,01,27,16.30
2018,08,08,01,28,16.30
2018,08,08,01,29,16.30
2018,08,08,01,30,16.30
2018,08,08,01,31,16.30
2018,08,08,01,32,16.30
2018,08,08,01,33,16.30
2018,08,08,01,34,16.30
2018,08,08,01,35,16.20
2018,08,08,01,36,16.20
2018,08,08,01,37,16.20
2018,08,08,01,38,16.20
2018,08,08,01,39,16.20
2018,08,08,01,40,16.20
2018,08,08,01,41,16.20
2018,08,08,01,42,16.20
2018,08,08,01,43,16.20
2018,08,08,01,44,16.20
2018,08,08,01,45,16.20
2018,08,08,01,46,16.20
2018,08,08,01,47,16.20
2018,08,08,01,48,16.20
2018,08,08,01,49,16.10
2018,08,08,01,50,16.10
2018,08,08,01,51,16.10
2018,08,08,01,52,16.10
2018,08,08,01,53,16.10
2018,08,08,01,54,16.10
2018,08,08,01,55,16.10
2018,08,08,01,56,16.10
2018,08,08,01,57,16.10
2018,08,08,01,58,16.00
2018,08,08,01,59,16.00
2018,08,08,02,00,16.00
2018,08,08,02,01,15.90
2018,08,08,02,02,15.90
2018,08,08,02,03,15.90
2018,08,08,02,04,15.90
2018,08,08,02,05,15.90
2018,08,08,02,06,15.90
2018,08,08,02,07,15.80
2018,08,08,02,08,15.80
2018,08,08,02,09,15.80
2018,08,08,02,10,15.80
2018,08,08,02,11,15.80
2018,08,08,02,12,15.70
2018,08,08,02,13,15.70
2018,08,08,02,14,15.60
2018,08,08,02,15,15.60
2018,08,08,02,16,15.60
2018,08,08,02,17,15.60
2018,08,08,02,18,15.60
2018,08,08,02,19,15.50
2018,08,08,02,20,15.50
2018,08,08,02,21,15.40
2018,08,08,02,22,15.40
2018,08,08,02,23,15.40
2018,08,08,02,24,15.30
2018,08,08,02,25,15.30
2018,08,08,02,26,15.30
2018,08,08,02,27,15.30
2018,08,08,02,28,15.20
2018,08,08,02,29,15.20
2018,08,08,02,30,15.20
2018,08,08,02,31,15.20
2018,08,08,02,32,15.10
2018,08,08,02,33,15.10
2018,08,08,02,34,15.10
2018,08,08,02,35,15.10
2018,08,08,02,36,15.00
2018,08,08,02,37,15.00
2018,08,08,02,38,15.00
2018,08,08,02,39,15.00
2018,08,08,02,40,14.90
2018,08,08,02,41,14.90
2018,08,08,02,42,14.90
2018,08,08,02,43,14.90
2018,08,08,02,44,14.80
2018,08,08,02,45,14.80
2018,08,08,02,46,14.80
2018,08,08,02,47,14.80
2018,08,08,02,48,14.70
2018,08,08,02,49,14.70
2018,08,08,02,50,14.70
2018,08,08,02,51,14.70
2018,08,08,02,52,14.70
2018,08,08,02,53,14.60
2018,08,08,02,54,14.60
2018,08,08,02,55,14.60
2018,08,08,02,56,14.60
2018,08,08,02,57,14.60
2018,08,08,02,58,14.50
2018,08,08,02,59,14.50
2018,08,08,03,00,14.50
2018,08,08,03,01,14.40
2018,08,08,03,02,14.40
2018,08,08,03,03,14.40
2018,08,08,03,04,14.40
2018,08,08,03,05,14.40
2018,08,08,03,06,14.40
2018,08,08,03,07,14.40
2018,08,08,03,08,14.30
2018,08,08,03,09,14.30
2018,08,08,03,10,14.30
2018,08,08,03,11,14.30
2018,08,08,03,12,14.30
2018,08,08,03,13,14.30
2018,08,08,03,14,14.30
2018,08,08,03,15,14.30
2018,08,08,03,16,14.30
2018,08,08,03,17,14.30
2018,08,08,03,18,14.30
2018,08,08,03,19,14.30
2018,08,08,03,20,14.30
2018,08,08,03,21,14.30
2018,08,08,03,22,14.30
2018,08,08,03,23,14.30
2018,08,08,03,24,14.30
2018,08,08,03,25,14.30
2018,08,08,03,26,14.20
2018,08,08,03,27,14.20
2018,08,08,03,28,14.20
2018,08,08,03,29,14.20
2018,08,08,03,30,14.20
2018,08,08,03,31,14.20
2018,08,08,03,32,14.20
2018,08,08,03,33,14.10
2018,08,08,03,34,14.10
2018,08,08,03,35,14.10
2018,08,08,03,36,14.10
2018,08,08,03,37,14.10
2018,08,08,03,38,14.10
2018,08,08,03,39,14.10
2018,08,08,03,40,14.10
2018,08,08,03,41,14.00
2018,08,08,03,42,14.00
2018,08,08,03,43,14.00
2018,08,08,03,44,14.00
2018,08,08,03,45,14.00
2018,08,08,03,46,13.90
2018,08,08,03,47,13.90
2018,08,08,03,48,13.90
2018,08,08,03,49,13.90
2018,08,08,03,50,13.90
2018,08,08,03,51,13.90
2018,08,08,03,52,13.90
2018,08,08,03,53,13.90
2018,08,08,03,54,13.90
2018,08,08,03,55,13.80
2018,08,08,03,56,13.80
2018,08,08,03,57,13.80
2018,08,08,03,58,13.80
2018,08,08,03,59,13.80
2018,08,08,04,00,13.80
2018,08,08,04,01,13.80
2018,08,08,04,02,13.80
2018,08,08,04,03,13.70
2018,08,08,04,04,13.70
2018,08,08,04,05,13.70
2018,08,08,04,06,13.70
2018,08,08,04,07,13.70
2018,08,08,04,08,13.70
2018,08,08,04,09,13.70
2018,08,08,04,10,13.60
2018,08,08,04,11,13.60
2018,08,08,04,12,13.60
2018,08,08,04,13,13.60
2018,08,08,04,14,13.60
2018,08,08,04,15,13.60
2018,08,08,04,16,13.60
2018,08,08,04,17,13.60
2018,08,08,04,18,13.60
2018,08,08,04,19,13.60
2018,08,08,04,20,13.50
2018,08,08,04,21,13.50
2018,08,08,04,22,13.50
2018,08,08,04,23,13.50
2018,08,08,04,24,13.50
2018,08,08,04,25,13.50
2018,08,08,04,26,13.40
2018,08,08,04,27,13.40
2018,08,08,04,28,13.40
2018,08,08,04,29,13.40
2018,08,08,04,30,13.40
2018,08,08,04,31,13.40
2018,08,08,04,32,13.40
2018,08,08,04,33,13.40
2018,08,08,04,34,13.40
2018,08,08,04,35,13.40
2018,08,08,04,36,13.30
2018,08,08,04,37,13.30
2018,08,08,04,38,13.30
2018,08,08,04,39,13.30
2018,08,08,04,40,13.30
2018,08,08,04,41,13.30
2018,08,08,04,42,13.30
2018,08,08,04,43,13.20
2018,08,08,04,44,13.20
2018,08,08,04,45,13.20
2018,08,08,04,46,13.20
2018,08,08,04,47,13.20
2018,08,08,04,48,13.20
2018,08,08,04,49,13.20
2018,08,08,04,50,13.20
2018,08,08,04,51,13.20
2018,08,08,04,52,13.20
2018,08,08,04,53,13.20
2018,08,08,04,54,13.10
2018,08,08,04,55,13.10
2018,08,08,04,56,13.10
2018,08,08,04,57,13.10
2018,08,08,04,58,13.10
2018,08,08,04,59,13.10
2018,08,08,05,00,13.10
2018,08,08,05,01,13.10
2018,08,08,05,02,13.10
2018,08,08,05,03,13.10
2018,08,08,05,04,13.10
2018,08,08,05,05,13.10
2018,08,08,05,06,13.10
2018,08,08,05,07,13.10
2018,08,08,05,08,13.10
2018,08,08,05,09,13.10
2018,08,08,05,10,13.20
2018,08,08,05,11,13.20
2018,08,08,05,12,13.20
2018,08,08,05,13,13.20
2018,08,08,05,14,13.20
2018,08,08,05,15,13.20
2018,08,08,05,16,13.20
2018,08,08,05,17,13.20
2018,08,08,05,18,13.20
2018,08,08,05,19,13.20
2018,08,08,05,20,13.20
2018,08,08,05,21,13.20
2018,08,08,05,22,13.20
2018,08,08,05,23,13.20
2018,08,08,05,24,13.20
2018,08,08,05,25,13.20
2018,08,08,05,26,13.20
2018,08,08,05,27,13.20
2018,08,08,05,28,13.20
2018,08,08,05,29,13.10
2018,08,08,05,30,13.20
2018,08,08,05,31,13.10
2018,08,08,05,32,13.10
2018,08,08,05,33,13.10
2018,08,08,05,34,13.10
2018,08,08,05,35,13.10
2018,08,08,05,36,13.10
2018,08,08,05,37,13.10
2018,08,08,05,38,13.10
2018,08,08,05,39,13.10
2018,08,08,05,40,13.10
2018,08,08,05,41,13.10
2018,08,08,05,42,13.10
2018,08,08,05,43,13.10
2018,08,08,05,44,13.10
2018,08,08,05,45,13.10
2018,08,08,05,46,13.00
2018,08,08,05,47,13.00
2018,08,08,05,48,13.00
2018,08,08,05,49,13.00
2018,08,08,05,50,13.00
2018,08,08,05,51,13.00
2018,08,08,05,52,13.10
2018,08,08,05,53,13.00
2018,08,08,05,54,13.10
2018,08,08,05,55,13.10
2018,08,08,05,56,13.10
2018,08,08,05,57,13.00
2018,08,08,05,58,13.00
2018,08,08,05,59,13.00
2018,08,08,06,00,13.00
2018,08,08,06,01,13.00
2018,08,08,06,02,13.00
2018,08,08,06,03,13.00
2018,08,08,06,04,13.00
2018,08,08,06,05,13.00
2018,08,08,06,06,13.00
2018,08,08,06,07,13.00
2018,08,08,06,08,13.00
2018,08,08,06,09,13.00
2018,08,08,06,10,13.00
2018,08,08,06,11,13.00
2018,08,08,06,12,13.00
2018,08,08,06,13,13.00
2018,08,08,06,14,13.00
2018,08,08,06,15,13.00
2018,08,08,06,16,13.00
2018,08,08,06,17,13.00
2018,08,08,06,18,13.10
2018,08,08,06,19,13.10
2018,08,08,06,20,13.10
2018,08,08,06,21,13.00
2018,08,08,06,22,13.10
2018,08,08,06,23,13.10
2018,08,08,06,24,13.10
2018,08,08,06,25,13.10
2018,08,08,06,26,13.10
2018,08,08,06,27,13.10
2018,08,08,06,28,13.10
2018,08,08,06,29,13.10
2018,08,08,06,30,13.10
2018,08,08,06,31,13.10
2018,08,08,06,32,13.20
2018,08,08,06,33,13.20
2018,08,08,06,34,13.20
2018,08,08,06,35,13.20
2018,08,08,06,36,13.20
2018,08,08,06,37,13.20
2018,08,08,06,38,13.20
2018,08,08,06,39,13.20
2018,08,08,06,40,13.20
2018,08,08,06,41,13.30
2018,08,08,06,42,13.30
2018,08,08,06,43,13.30
2018,08,08,06,44,13.30
2018,08,08,06,45,13.30
2018,08,08,06,46,13.30
2018,08,08,06,47,13.30
2018,08,08,06,48,13.30
2018,08,08,06,49,13.30
2018,08,08,06,50,13.40
2018,08,08,06,51,13.40
2018,08,08,06,52,13.40
2018,08,08,06,53,13.40
2018,08,08,06,54,13.40
2018,08,08,06,55,13.40
2018,08,08,06,56,13.50
2018,08,08,06,57,13.50
2018,08,08,06,58,13.60
2018,08,08,06,59,13.60
2018,08,08,07,00,13.60
2018,08,08,07,01,13.60
2018,08,08,07,02,13.70
2018,08,08,07,03,13.70
2018,08,08,07,04,13.70
2018,08,08,07,05,13.70
2018,08,08,07,06,13.70
2018,08,08,07,07,13.80
2018,08,08,07,08,13.80
2018,08,08,07,09,13.80
2018,08,08,07,10,13.90
2018,08,08,07,11,13.90
2018,08,08,07,12,13.90
2018,08,08,07,13,13.90
2018,08,08,07,14,14.00
2018,08,08,07,15,14.00
2018,08,08,07,16,14.10
2018,08,08,07,17,14.10
2018,08,08,07,18,14.10
2018,08,08,07,19,14.20
2018,08,08,07,20,14.20
2018,08,08,07,21,14.30
2018,08,08,07,22,14.30
2018,08,08,07,23,14.30
2018,08,08,07,24,14.40
2018,08,08,07,25,14.40
2018,08,08,07,26,14.50
2018,08,08,07,27,14.50
2018,08,08,07,28,14.60
2018,08,08,07,29,14.60
2018,08,08,07,30,14.60
2018,08,08,07,31,14.70
2018,08,08,07,32,14.80
2018,08,08,07,33,14.90
2018,08,08,07,34,15.00
2018,08,08,07,35,15.10
2018,08,08,07,36,15.20
2018,08,08,07,37,15.30
2018,08,08,07,38,15.40
2018,08,08,07,39,15.50
2018,08,08,07,40,15.50
2018,08,08,07,41,15.60
2018,08,08,07,42,15.60
2018,08,08,07,43,15.70
2018,08,08,07,44,15.80
2018,08,08,07,45,15.90
2018,08,08,07,46,16.00
2018,08,08,07,47,16.10
2018,08,08,07,48,16.20
2018,08,08,07,49,16.30
2018,08,08,07,50,16.40
2018,08,08,07,51,16.40
2018,08,08,07,52,16.50
2018,08,08,07,53,16.60
2018,08,08,07,54,16.70
2018,08,08,07,55,16.80
2018,08,08,07,56,16.80
2018,08,08,07,57,16.90
2018,08,08,07,58,17.00
2018,08,08,07,59,17.00
2018,08,08,08,00,17.00
2018,08,08,08,01,17.10
2018,08,08,08,02,17.10
2018,08,08,08,03,17.20
2018,08,08,08,04,17.30
2018,08,08,08,05,17.30
2018,08,08,08,06,17.40
2018,08,08,08,07,17.50
2018,08,08,08,08,17.60
2018,08,08,08,09,17.70
2018,08,08,08,10,17.70
2018,08,08,08,11,17.80
2018,08,08,08,12,17.90
2018,08,08,08,13,17.90
2018,08,08,08,14,18.00
2018,08,08,08,15,18.00
2018,08,08,08,16,18.10
2018,08,08,08,17,18.10
2018,08,08,08,18,18.20
2018,08,08,08,19,18.30
2018,08,08,08,20,18.30
2018,08,08,08,21,18.30
2018,08,08,08,22,18.40
2018,08,08,08,23,18.40
2018,08,08,08,24,18.50
2018,08,08,08,25,18.50
2018,08,08,08,26,18.60
2018,08,08,08,27,18.60
2018,08,08,08,28,18.70
2018,08,08,08,29,18.80
2018,08,08,08,30,18.80
2018,08,08,08,31,18.90
2018,08,08,08,32,19.00
2018,08,08,08,33,19.00
2018,08,08,08,34,19.10
2018,08,08,08,35,19.20
2018,08,08,08,36,19.30
2018,08,08,08,37,19.40
2018,08,08,08,38,19.50
2018,08,08,08,39,19.60
2018,08,08,08,40,19.70
2018,08,08,08,41,19.80
2018,08,08,08,42,19.90
2018,08,08,08,43,20.00
2018,08,08,08,44,20.10
2018,08,08,08,45,20.30
2018,08,08,08,46,20.40
2018,08,08,08,47,20.60
2018,08,08,08,48,20.70
2018,08,08,08,49,20.80
2018,08,08,08,50,21.00
2018,08,08,08,51,21.10
2018,08,08,08,52,21.20
2018,08,08,08,53,21.30
2018,08,08,08,54,21.40
2018,08,08,08,55,21.50
2018,08,08,08,56,21.60
2018,08,08,08,57,21.70
2018,08,08,08,58,21.70
2018,08,08,08,59,21.80
2018,08,08,09,00,21.90
2018,08,08,09,01,22.00
2018,08,08,09,02,22.10
2018,08,08,09,03,22.10
2018,08,08,09,04,22.20
2018,08,08,09,05,22.20
2018,08,08,09,06,22.30
2018,08,08,09,07,22.40
2018,08,08,09,08,22.40
2018,08,08,09,09,22.50
2018,08,08,09,10,22.50
2018,08,08,09,11,22.60
2018,08,08,09,12,22.60
2018,08,08,09,13,22.70
2018,08,08,09,14,22.70
2018,08,08,09,15,22.80
2018,08,08,09,16,22.80
2018,08,08,09,17,22.80
2018,08,08,09,18,22.80
2018,08,08,09,19,22.90
2018,08,08,09,20,22.90
2018,08,08,09,21,23.00
2018,08,08,09,22,23.00
2018,08,08,09,23,23.10
2018,08,08,09,24,23.10
2018,08,08,09,25,23.20
2018,08,08,09,26,23.20
2018,08,08,09,27,23.20
2018,08,08,09,28,23.20
2018,08,08,09,29,23.20
2018,08,08,09,30,23.20
2018,08,08,09,31,23.20
2018,08,08,09,32,23.20
2018,08,08,09,33,23.30
2018,08,08,09,34,23.30
2018,08,08,09,35,23.30
2018,08,08,09,36,23.40
2018,08,08,09,37,23.40
2018,08,08,09,38,23.50
2018,08,08,09,39,23.50
2018,08,08,09,40,23.60
2018,08,08,09,41,23.60
2018,08,08,09,42,23.70
2018,08,08,09,43,23.80
2018,08,08,09,44,23.80
2018,08,08,09,45,23.90
2018,08,08,09,46,23.90
2018,08,08,09,47,24.00
2018,08,08,09,48,24.10
2018,08,08,09,49,24.10
2018,08,08,09,50,24.10
2018,08,08,09,51,24.20
2018,08,08,09,52,24.30
2018,08,08,09,53,24.30
2018,08,08,09,54,24.30
2018,08,08,09,55,24.40
2018,08,08,09,56,24.40
2018,08,08,09,57,24.50
2018,08,08,09,58,24.60
2018,08,08,09,59,24.60
2018,08,08,10,00,24.60
2018,08,08,10,01,24.60
2018,08,08,10,02,24.60
2018,08,08,10,03,24.60
2018,08,08,10,04,24.60
2018,08,08,10,05,24.60
2018,08,08,10,06,24.60
2018,08,08,10,07,24.60
2018,08,08,10,08,24.60
2018,08,08,10,09,24.60
2018,08,08,10,10,24.60
2018,08,08,10,11,24.70
2018,08,08,10,12,24.70
2018,08,08,10,13,24.80
2018,08,08,10,14,24.80
2018,08,08,10,15,24.80
2018,08,08,10,16,24.90
2018,08,08,10,17,25.00
2018,08,08,10,18,25.00
2018,08,08,10,19,25.10
2018,08,08,10,20,25.20
2018,08,08,10,21,25.30
2018,08,08,10,22,25.30
2018,08,08,10,23,25.40
2018,08,08,10,24,25.40
2018,08,08,10,25,25.40
2018,08,08,10,26,25.50
2018,08,08,10,27,25.50
2018,08,08,10,28,25.50
2018,08,08,10,29,25.60
2018,08,08,10,30,25.60
2018,08,08,10,31,25.70
2018,08,08,10,32,25.70
2018,08,08,10,33,25.80
2018,08,08,10,34,25.80
2018,08,08,10,35,25.80
2018,08,08,10,36,25.80
2018,08,08,10,37,25.80
2018,08,08,10,38,25.80
2018,08,08,10,39,25.80
2018,08,08,10,40,25.80
2018,08,08,10,41,25.80
2018,08,08,10,42,25.80
2018,08,08,10,43,25.80
2018,08,08,10,44,25.80
2018,08,08,10,45,25.80
2018,08,08,10,46,25.80
2018,08,08,10,47,25.80
2018,08,08,10,48,25.80
2018,08,08,10,49,25.80
2018,08,08,10,50,25.80
2018,08,08,10,51,25.80
2018,08,08,10,52,25.80
2018,08,08,10,53,25.80
2018,08,08,10,54,25.70
2018,08,08,10,55,25.70
2018,08,08,10,56,25.60
2018,08,08,10,57,25.50
2018,08,08,10,58,25.50
2018,08,08,10,59,25.50
2018,08,08,11,00,25.40
2018,08,08,11,01,25.40
2018,08,08,11,02,25.40
2018,08,08,11,03,25.30
2018,08,08,11,04,25.30
2018,08,08,11,05,25.30
2018,08,08,11,06,25.20
2018,08,08,11,07,25.30
2018,08,08,11,08,25.30
2018,08,08,11,09,25.30
2018,08,08,11,10,25.40
2018,08,08,11,11,25.40
2018,08,08,11,12,25.50
2018,08,08,11,13,25.50
2018,08,08,11,14,25.50
2018,08,08,11,15,25.50
2018,08,08,11,16,25.60
2018,08,08,11,17,25.50
2018,08,08,11,18,25.60
2018,08,08,11,19,25.60
2018,08,08,11,20,25.60
2018,08,08,11,21,25.70
2018,08,08,11,22,25.80
2018,08,08,11,23,25.80
2018,08,08,11,24,25.80
2018,08,08,11,25,25.80
2018,08,08,11,26,25.80
2018,08,08,11,27,25.90
2018,08,08,11,28,25.90
2018,08,08,11,29,26.00
2018,08,08,11,30,26.00
2018,08,08,11,31,26.10
2018,08,08,11,32,26.10
2018,08,08,11,33,26.20
2018,08,08,11,34,26.20
2018,08,08,11,35,26.20
2018,08,08,11,36,26.20
2018,08,08,11,37,26.20
2018,08,08,11,38,26.20
2018,08,08,11,39,26.20
2018,08,08,11,40,26.20
2018,08,08,11,41,26.20
2018,08,08,11,42,26.20
2018,08,08,11,43,26.20
2018,08,08,11,44,26.20
2018,08,08,11,45,26.20
2018,08,08,11,46,26.20
2018,08,08,11,47,26.20
2018,08,08,11,48,26.30
2018,08,08,11,49,26.30
2018,08,08,11,50,26.40
2018,08,08,11,51,26.40
2018,08,08,11,52,26.40
2018,08,08,11,53,26.50
2018,08,08,11,54,26.50
2018,08,08,11,55,26.50
2018,08,08,11,56,26.50
2018,08,08,11,57,26.40
2018,08,08,11,58,26.40
2018,08,08,11,59,26.40
2018,08,08,12,00,26.40
2018,08,08,12,01,26.40
2018,08,08,12,02,26.50
2018,08,08,12,03,26.50
2018,08,08,12,04,26.60
2018,08,08,12,05,26.70
2018,08,08,12,06,26.70
2018,08,08,12,07,26.80
2018,08,08,12,08,26.80
2018,08,08,12,09,26.80
2018,08,08,12,10,26.90
2018,08,08,12,11,26.90
2018,08,08,12,12,27.00
2018,08,08,12,13,27.00
2018,08,08,12,14,27.10
2018,08,08,12,15,27.20
2018,08,08,12,16,27.30
2018,08,08,12,17,27.40
2018,08,08,12,18,27.50
2018,08,08,12,19,27.60
2018,08,08,12,20,27.70
2018,08,08,12,21,27.80
2018,08,08,12,22,27.90
2018,08,08,12,23,28.00
2018,08,08,12,24,28.10
2018,08,08,12,25,28.20
2018,08,08,12,26,28.30
2018,08,08,12,27,28.30
2018,08,08,12,28,28.30
2018,08,08,12,29,28.30
2018,08,08,12,30,28.30
2018,08,08,12,31,28.30
2018,08,08,12,32,28.40
2018,08,08,12,33,28.40
2018,08,08,12,34,28.50
2018,08,08,12,35,28.60
2018,08,08,12,36,28.60
2018,08,08,12,37,28.70
2018,08,08,12,38,28.70
2018,08,08,12,39,28.70
2018,08,08,12,40,28.60
2018,08,08,12,41,28.70
2018,08,08,12,42,28.70
2018,08,08,12,43,28.60
2018,08,08,12,44,28.60
2018,08,08,12,45,28.60
2018,08,08,12,46,28.60
2018,08,08,12,47,28.70
2018,08,08,12,48,28.70
2018,08,08,12,49,28.80
2018,08,08,12,50,28.80
2018,08,08,12,51,28.90
2018,08,08,12,52,28.90
2018,08,08,12,53,29.00
2018,08,08,12,54,29.10
2018,08,08,12,55,29.20
2018,08,08,12,56,29.20
2018,08,08,12,57,29.30
2018,08,08,12,58,29.30
2018,08,08,12,59,29.40
2018,08,08,13,00,29.40
2018,08,08,13,01,29.50
2018,08,08,13,02,29.60
2018,08,08,13,03,29.70
2018,08,08,13,04,29.70
2018,08,08,13,05,29.70
2018,08,08,13,06,29.70
2018,08,08,13,07,29.80
2018,08,08,13,08,29.80
2018,08,08,13,09,29.80
2018,08,08,13,10,29.80
2018,08,08,13,11,29.90
2018,08,08,13,12,29.90
2018,08,08,13,13,29.90
2018,08,08,13,14,29.90
2018,08,08,13,15,29.90
2018,08,08,13,16,29.90
2018,08,08,13,17,29.90
2018,08,08,13,18,30.00
2018,08,08,13,19,30.00
2018,08,08,13,20,30.00
2018,08,08,13,21,30.10
2018,08,08,13,22,30.10
2018,08,08,13,23,30.10
2018,08,08,13,24,30.10
2018,08,08,13,25,30.10
2018,08,08,13,26,30.10
2018,08,08,13,27,30.10
2018,08,08,13,28,30.10
2018,08,08,13,29,30.10
2018,08,08,13,30,30.10
2018,08,08,13,31,30.10
2018,08,08,13,32,30.10
2018,08,08,13,33,30.10
2018,08,08,13,34,30.10
2018,08,08,13,35,30.10
2018,08,08,13,36,30.10
2018,08,08,13,37,30.20
2018,08,08,13,38,30.20
2018,08,08,13,39,30.30
2018,08,08,13,40,30.20
2018,08,08,13,41,30.20
2018,08,08,13,42,30.20
2018,08,08,13,43,30.20
2018,08,08,13,44,30.10
2018,08,08,13,45,30.10
2018,08,08,13,46,30.10
2018,08,08,13,47,30.10
2018,08,08,13,48,30.20
2018,08,08,13,49,30.10
2018,08,08,13,50,30.10
2018,08,08,13,51,30.10
2018,08,08,13,52,30.20
2018,08,08,13,53,30.20
2018,08,08,13,54,30.20
2018,08,08,13,55,30.30
2018,08,08,13,56,30.30
2018,08,08,13,57,30.40
2018,08,08,13,58,30.40
2018,08,08,13,59,30.40
2018,08,08,14,00,30.40
2018,08,08,14,01,30.50
2018,08,08,14,02,30.60
2018,08,08,14,03,30.60
2018,08,08,14,04,30.60
2018,08,08,14,05,30.60
2018,08,08,14,06,30.60
2018,08,08,14,07,30.60
2018,08,08,14,08,30.70
2018,08,08,14,09,30.70
2018,08,08,14,10,30.70
2018,08,08,14,11,30.70
2018,08,08,14,12,30.70
2018,08,08,14,13,30.70
2018,08,08,14,14,30.70
2018,08,08,14,15,30.70
2018,08,08,14,16,30.70
2018,08,08,14,17,30.60
2018,08,08,14,18,30.60
2018,08,08,14,19,30.50
2018,08,08,14,20,30.50
2018,08,08,14,21,30.40
2018,08,08,14,22,30.40
2018,08,08,14,23,30.40
2018,08,08,14,24,30.40
2018,08,08,14,25,30.40
2018,08,08,14,26,30.40
2018,08,08,14,27,30.40
2018,08,08,14,28,30.30
2018,08,08,14,29,30.30
2018,08,08,14,30,30.30
2018,08,08,14,31,30.40
2018,08,08,14,32,30.40
2018,08,08,14,33,30.40
2018,08,08,14,34,30.50
2018,08,08,14,35,30.50
2018,08,08,14,36,30.60
2018,08,08,14,37,30.60
2018,08,08,14,38,30.70
2018,08,08,14,39,30.80
2018,08,08,14,40,30.80
2018,08,08,14,41,30.90
2018,08,08,14,42,30.90
2018,08,08,14,43,30.90
2018,08,08,14,44,31.00
2018,08,08,14,45,31.10
2018,08,08,14,46,31.20
2018,08,08,14,47,31.30
2018,08,08,14,48,31.30
2018,08,08,14,49,31.40
2018,08,08,14,50,31.40
2018,08,08,14,51,31.50
2018,08,08,14,52,31.50
2018,08,08,14,53,31.60
2018,08,08,14,54,31.70
2018,08,08,14,55,31.80
2018,08,08,14,56,31.90
2018,08,08,14,57,32.00
2018,08,08,14,58,32.10
2018,08,08,14,59,32.10
2018,08,08,15,00,32.10
2018,08,08,15,01,32.00
2018,08,08,15,02,32.00
2018,08,08,15,03,31.90
2018,08,08,15,04,31.90
2018,08,08,15,05,31.90
2018,08,08,15,06,32.00
2018,08,08,15,07,32.00
2018,08,08,15,08,32.10
2018,08,08,15,09,32.10
2018,08,08,15,10,32.10
2018,08,08,15,11,32.10
2018,08,08,15,12,32.20
2018,08,08,15,13,32.20
2018,08,08,15,14,32.20
2018,08,08,15,15,32.20
2018,08,08,15,16,32.20
2018,08,08,15,17,32.20
2018,08,08,15,18,32.20
2018,08,08,15,19,32.20
2018,08,08,15,20,32.30
2018,08,08,15,21,32.30
2018,08,08,15,22,32.30
2018,08,08,15,23,32.30
2018,08,08,15,24,32.30
2018,08,08,15,25,32.20
2018,08,08,15,26,32.20
2018,08,08,15,27,32.10
2018,08,08,15,28,32.10
2018,08,08,15,29,32.10
2018,08,08,15,30,32.10
2018,08,08,15,31,32.20
2018,08,08,15,32,32.20
2018,08,08,15,33,32.30
2018,08,08,15,34,32.30
2018,08,08,15,35,32.30
2018,08,08,15,36,32.30
2018,08,08,15,37,32.40
2018,08,08,15,38,32.40
2018,08,08,15,39,32.50
2018,08,08,15,40,32.60
2018,08,08,15,41,32.60
2018,08,08,15,42,32.70
2018,08,08,15,43,32.70
2018,08,08,15,44,32.70
2018,08,08,15,45,32.70
2018,08,08,15,46,32.70
2018,08,08,15,47,32.80
2018,08,08,15,48,32.70
2018,08,08,15,49,32.80
2018,08,08,15,50,32.80
2018,08,08,15,51,32.80
2018,08,08,15,52,32.90
2018,08,08,15,53,32.90
2018,08,08,15,54,32.90
2018,08,08,15,55,33.00
2018,08,08,15,56,33.00
2018,08,08,15,57,33.00
2018,08,08,15,58,33.10
2018,08,08,15,59,33.20
2018,08,08,16,00,33.20
2018,08,08,16,01,33.30
2018,08,08,16,02,33.30
2018,08,08,16,03,33.30
2018,08,08,16,04,33.40
2018,08,08,16,05,33.50
2018,08,08,16,06,33.50
2018,08,08,16,07,33.60
2018,08,08,16,08,33.60
2018,08,08,16,09,33.60
2018,08,08,16,10,33.70
2018,08,08,16,11,33.70
2018,08,08,16,12,33.70
2018,08,08,16,13,33.80
2018,08,08,16,14,33.80
2018,08,08,16,15,33.80
2018,08,08,16,16,33.80
2018,08,08,16,17,33.70
2018,08,08,16,18,33.70
2018,08,08,16,19,33.70
2018,08,08,16,20,33.60
2018,08,08,16,21,33.60
2018,08,08,16,22,33.60
2018,08,08,16,23,33.60
2018,08,08,16,24,33.70
2018,08,08,16,25,33.70
2018,08,08,16,26,33.80
2018,08,08,16,27,33.80
2018,08,08,16,28,33.80
2018,08,08,16,29,33.90
2018,08,08,16,30,33.90
2018,08,08,16,31,33.90
2018,08,08,16,32,34.00
2018,08,08,16,33,34.00
2018,08,08,16,34,34.00
2018,08,08,16,35,34.00
2018,08,08,16,36,34.10
2018,08,08,16,37,34.10
2018,08,08,16,38,34.10
2018,08,08,16,39,34.10
2018,08,08,16,40,34.20
2018,08,08,16,41,34.20
2018,08,08,16,42,34.30
2018,08,08,16,43,34.30
2018,08,08,16,44,34.30
2018,08,08,16,45,34.30
2018,08,08,16,46,34.30
2018,08,08,16,47,34.40
2018,08,08,16,48,34.40
2018,08,08,16,49,34.30
2018,08,08,16,50,34.30
2018,08,08,16,51,34.30
2018,08,08,16,52,34.30
2018,08,08,16,53,34.30
2018,08,08,16,54,34.30
2018,08,08,16,55,34.30
2018,08,08,16,56,34.30
2018,08,08,16,57,34.30
2018,08,08,16,58,34.30
2018,08,08,16,59,34.20
2018,08,08,17,00,34.30
2018,08,08,17,01,34.30
2018,08,08,17,02,34.30
2018,08,08,17,03,34.30
2018,08,08,17,04,34.30
2018,08,08,17,05,34.30
2018,08,08,17,06,34.30
2018,08,08,17,07,34.30
2018,08,08,17,08,34.30
2018,08,08,17,09,34.30
2018,08,08,17,10,34.40
2018,08,08,17,11,34.30
2018,08,08,17,12,34.30
2018,08,08,17,13,34.30
2018,08,08,17,14,34.30
2018,08,08,17,15,34.30
2018,08,08,17,16,34.30
2018,08,08,17,17,34.20
2018,08,08,17,18,34.20
2018,08,08,17,19,34.20